Regional Weather Roundup
Issued by NWS

Home | Current Version | Previous Version | Text Only | Print | Product List | Glossary Off
Versions: 1 2 3 4 5 6 7 8 9 10 11 12 13 14 15 16 17 18 19 20 21 22 23 24 25 26 27 28 29 30 31 32 33 34 35 36 37 38 39 40 41 42 43 44 45 46 47 48 49 50

789
ASUS45 KPSR 051310
RWRAZ

ARIZONA HOURLY REGIONAL WEATHER ROUNDUP
NATIONAL WEATHER SERVICE PHOENIX AZ
600 AM MST THU MAY 05 2016

NOTE: FAIR INDICATES FEW OR NO CLOUDS BELOW 12,000 FEET WITH NO
SIGNIFICANT WEATHER AND/OR OBSTRUCTIONS TO VISIBILITY.

AZZ001>003-036-051400-
NORTHWEST ARIZONA

CITY           SKY/WX    TMP DP  RH WIND       PRES   REMARKS
BULLHEAD CITY  CLEAR     72  36  26 S5        29.77R
KINGMAN        PTCLDY    60  18  19 SE15      29.89R
$$

AZZ004>008-015-016-018-051400-
NORTH CENTRAL ARIZONA

CITY           SKY/WX    TMP DP  RH WIND       PRES   REMARKS
GRAND CANYON   PTCLDY    37  30  75 E3        30.09S
WILLIAMS       PTCLDY    45  23  42 SE6       30.15S
PRESCOTT       CLEAR     52  24  33 S3        30.00S
FLAGSTAFF      MOCLDY    35  28  75 CALM      30.13R
PAYSON         PTCLDY    61  25  25 CALM      30.06R
PAGE           PTCLDY    61  30  31 CALM      29.98R
$$

AZZ009>014-017-051400-
NORTHEAST ARIZONA

CITY           SKY/WX    TMP DP  RH WIND       PRES   REMARKS
WINSLOW        PTCLDY    55  33  43 S7        30.05S
SAINT JOHNS    CLEAR     54  26  34 NE6       30.12S
WINDOW ROCK    CLEAR     37  33  85 CALM      30.22R
SHOW LOW       CLEAR     45  25  45 CALM      30.15F
$$

AZZ023-051400-
GREATER PHOENIX AREA

CITY           SKY/WX    TMP DP  RH WIND       PRES   REMARKS
PHOENIX        PTCLDY    73  25  16 E10       29.81R
BUCKEYE        PTCLDY    64  23  20 NE5       29.83R
GLENDALE       PTCLDY    66  36  32 W3        29.83
LUKE AFB       CLEAR     65  36  34 W6        29.81R
DEER VALLEY    CLEAR     70  27  20 E9        29.83R
SCOTTSDALE     CLEAR     71  28  20 CALM      29.85R
MESA-GATEWAY   PTCLDY    66  27  22 SE7       29.85R
CHANDLER       PTCLDY    68  32  26 SE6       29.83
$$

AZZ027-028-051400-
SOUTHWEST MARICOPA COUNTY AND PINAL COUNTY

CITY           SKY/WX    TMP DP  RH WIND       PRES   REMARKS
CASA GRANDE    CLEAR     63  21  20 CALM      29.85S
GILA BEND      FAIR      69  29  22 S9        29.81R
$$

AZZ503-504-507>509-051400-
SOUTHEAST ARIZONA

CITY           SKY/WX    TMP DP  RH WIND       PRES   REMARKS
TUCSON         CLEAR     64  31  28 SE9       29.95R
DAVIS-MONTHAN  CLEAR     62  31  30 SE9       29.94R
RYAN FIELD     CLEAR     57  30  35 E9        29.94
NOGALES        CLEAR     53  30  41 CALM      30.01S
SIERRA VISTA   CLEAR     64  26  23 E6        30.05R
DOUGLAS        CLEAR     57  24  28 S5        30.03R
SAFFORD        CLEAR     69  24  18 E10       29.96R
$$

AZZ020-021-025-026-031-051400-
SOUTHWEST ARIZONA

CITY           SKY/WX    TMP DP  RH WIND       PRES   REMARKS
YUMA           MOCLDY    68  47  46 S8        29.77R
$$

CAZ031-033-041-043-047-048-061-051400-
SOUTHERN CALIFORNIA

CITY           SKY/WX    TMP DP  RH WIND       PRES   REMARKS
DOWNTOWN L.A.  CLOUDY    60  52  74 CALM      29.89F
L.A. AIRPORT   CLOUDY    60  52  74 NW3       29.90S
SAN DIEGO      CLOUDY    62  50  64 CALM      29.93S
BURBANK        CLOUDY    57  50  77 SE5       29.89F
ONTARIO        CLOUDY    56  51  84 W7        29.91R
RIVERSIDE      CLOUDY    57  52  83 CALM      29.91R
PALM SPRINGS   CLEAR     66  46  48 NW13G18   29.76R
EL CENTRO NAS  MOCLDY    65  46  50 W28G36    29.77S
IMPERIAL       CLEAR     65  47  52 W15       29.74R
BLYTHE         PTCLDY    68  42  38 S7        29.77R
NEEDLES        CLEAR     74  34  23 SW8       29.77R
$$

NVZ020-UTZ003-051400-
SOUTHERN NEVADA-UTAH

CITY           SKY/WX    TMP DP  RH WIND       PRES   REMARKS
LAS VEGAS      MOCLDY    70  33  25 CALM      29.76R
SALT LAKE CITY CLOUDY    64  34  32 SE12      29.92F
$$

NMZ009-TXZ055-051400-
NEW MEXICO-WEST TEXAS

CITY           SKY/WX    TMP DP  RH WIND       PRES   REMARKS
ALBUQUERQUE    CLEAR     54  24  31 N12       30.21R
EL PASO        MOCLDY    65  22  19 N6        30.11R
$$


........................KEY........................
SKY/WX - SKY CONDITION/WEATHER
TMP    - TEMPERATURE IN FAHRENHEIT
DP     - DEW POINT IN FAHRENHEIT
RH     - RELATIVE HUMIDITY IN PERCENT
WIND   - DIRECTION AND SPEED IN MILES PER HOUR (MPH)
VRB    - VARIABLE WIND DIRECTION
PRES   - MEAN SEA LEVEL PRESSURE IN INCHES OF MERCURY
         F - FALLING PRESSURE   R - RISING PRESSURE
         S - STEADY PRESSURE
VSB    - VISIBILITY IN MILES
HX     - HEAT INDEX IN FAHRENHEIT
WCI    - WIND CHILL INDEX IN FAHRENHEIT
TC     - TEMPERATURE IN CELSIUS WHICH IS ALSO KNOWN AS
         TEMPERATURE IN CENTIGRADE
AFB    - AIR FORCE BASE
         LUKE AFB IS LUKE AIR FORCE BASE
         DAVIS-MONTHAN IS DAVIS-MONTHAN AIR FORCE BASE
NAS    - NAVAL AIR STATION
         EL CENTRO NAS IS EL CENTRO NAVAL AIR STATION
N/A    - NOT AVAILABLE





USA.gov is the U.S. government's official web portal to all federal, state and local government web resources and services.